This demonstration page uses our WeatherBlox Daily Observations layout. Learn more.

Left ArrowRight Arrow

38.20091, -84.87328

Hourly Observations for September 8, 2021

Temp ( °F °C ) Dew Point ( °F °C ) Humidity (%) Winds ( mph kmh ) Pressure ( in mb ) Visibility ( mi km ) Precip ( " mm )
12:53 am 00:53 Clear 68 20 61 16.1 78 78 WSW 5 7 29.85 1011 10 16 0.00 0.00
1:53 am 01:53 Clear 66 18.9 61 16.1 84 84 SSW 6 9 29.86 1011 10 16 0.00 0.00
2:53 am 02:53 Mostly Clear 64 17.8 60 15.6 87 87 SSW 6 9 29.85 1011 10 16 0.00 0.00
3:53 am 03:53 Clear 66 18.9 60 15.6 81 81 SSW 7 11 29.84 1010 10 16 0.00 0.00
4:53 am 04:53 Clear 66 18.9 60 15.6 81 81 SSW 8 13 29.80 1009 10 16 0.00 0.00
5:53 am 05:53 Clear 67 19.4 60 15.6 79 79 SW 7 11 29.79 1009 10 16 0.00 0.00
6:53 am 06:53 Mostly Clear 67 19.4 60 15.6 79 79 SSW 8 13 29.81 1009 10 16 0.00 0.00
7:53 am 07:53 Mostly Cloudy 67 19.4 60 15.6 79 79 SSW 7 11 29.81 1010 10 16 0.00 0.00
8:53 am 08:53 Mostly Cloudy 68 20 61 16.1 78 78 Calm 29.83 1010 10 16 0.00 0.00
9:35 am 09:35 Cloudy with Thunderstorms 69 20.6 62 16.7 78 78 W 6 9 29.84 1010 8 13 0.00 0.00
9:53 am 09:53 Cloudy with Thunderstorms 67 19.4 62 16.7 84 84 W 6 9 29.84 1011 8 13 0.02 0.51
9:58 am 09:58 Cloudy with Strong Thunderstorms 66 18.9 63 17.2 90 90 Calm 29.84 1011 1 2 0.08 2.03
10:05 am 10:05 Cloudy with Thunderstorms 66 18.9 63 17.2 90 90 S 3 6 29.83 1010 1 1 0.09 2.29
10:07 am 10:07 Cloudy with Thunderstorms 66 18.9 63 17.2 90 90 S 5 7 29.83 1010 2 3 0.09 2.29
10:09 am 10:09 Cloudy with Thunderstorms 67 19.4 63 17.2 87 87 SSW 5 7 29.84 1011 5 8 0.09 2.29
10:17 am 10:17 Cloudy with Nearby Thunderstorms 67 19.4 64 17.8 91 91 Calm 29.84 1011 10 16 0.09 2.29
10:31 am 10:31 Cloudy with Nearby Thunderstorms 67 19.4 64 17.8 91 91 S 6 9 29.84 1011 2 3 0.16 4.06
10:37 am 10:37 Cloudy with Thunderstorms 67 19.4 64 17.8 91 91 VRB 3 6 29.84 1011 3 5 0.17 4.32
10:53 am 10:53 Cloudy with Nearby Thunderstorms 67 19.4 64 17.8 91 91 SSW 3 6 29.85 1011 10 16 0.17 4.32
11:05 am 11:05 Cloudy with Rain 67 19.4 64 17.8 91 91 S 5 7 29.84 1011 4 6 0.02 0.51
11:16 am 11:16 Cloudy with Light Rain 67 19.4 64 17.8 91 91 Calm 29.84 1011 3 4 0.07 1.78
11:19 am 11:19 Cloudy with Nearby Thunderstorms 67 19.4 64 17.8 91 91 Calm 29.84 1011 3 5 0.07 1.78
11:46 am 11:46 Cloudy 67 19.4 65 18.3 93 93 S 5 7 29.85 1011 10 16 0.07 1.78
11:53 am 11:53 Cloudy 67 19.4 65 18.3 93 93 SSW 7 11 29.85 1011 10 16 0.07 1.78
12:51 pm 12:51 Cloudy 70 21 66 19 88 88 SSW 9 15 29.86 1011 10 16 0.00 0.00
12:53 pm 12:53 Cloudy 69 20.6 66 18.9 90 90 SSW 8 13 29.86 1011 10 16 0.00 0.00
1:53 pm 13:53 Partly Cloudy 73 22.8 66 18.9 79 79 SW 8 13 29.85 1011 10 16 0.00 0.00
2:28 pm 14:28 Mostly Cloudy 74 23.3 66 18.9 76 76 SW 7 11 29.84 1011 10 16 0.00 0.00
2:53 pm 14:53 Partly Cloudy 76 24.4 66 18.9 72 72 SSW 8 13 29.85 1011 10 16 0.00 0.00
3:53 pm 15:53 Mostly Sunny 77 25 67 19.4 71 71 SSW 9 15 29.82 1010 10 16 0.00 0.00
4:53 pm 16:53 Mostly Sunny 78 25.6 65 18.3 64 64 SW 9 15 29.81 1009 10 16 0.00 0.00
5:53 pm 17:53 Sunny 76 24.4 63 17.2 64 64 WSW 5 7 29.81 1009 10 16 0.00 0.00
6:53 pm 18:53 Sunny 75 23.9 65 18.3 71 71 WSW 6 9 29.83 1010 10 16 0.00 0.00
7:53 pm 19:53 Mostly Sunny 72 22.2 67 19.4 84 84 WSW 3 6 29.83 1010 10 16 0.00 0.00
8:53 pm 20:53 Clear 68 20 65 18.3 90 90 Calm 29.84 1011 10 16 0.00 0.00
9:53 pm 21:53 Clear 66 18.9 62 16.7 87 87 NW 3 6 29.86 1011 10 16 0.00 0.00
10:53 pm 22:53 Mostly Clear 64 17.8 61 16.1 90 90 Calm 29.86 1011 10 16 0.00 0.00
11:53 pm 23:53 Clear 61 16.1 58 14.4 90 90 Calm 29.87 1012 10 16 0.00 0.00

Powered by AerisWeather